Binghamton, NY

3:19 AM EST on December 13, 2019 (GMT -0500)
Binghamton Regional-Link

Weather History for KBGM - November, 2019

Change the Weather History Date:

Thursday, November 14, 2019

  Actual Average Record
Temperature  
Mean Temperature 24 °F 39 °F  
Max Temperature 32 °F 46 °F 66 °F (1989)
Min Temperature 18 °F 32 °F 12 °F (1986)
Degree Days  
Heating Degree Days 41 26  
Month to date heating degree days 334  
Since 1 July heating degree days 1106  
Cooling Degree Days 0 0  
Month to date cooling degree days 0  
Year to date cooling degree days 381  
Moisture  
Dew Point 13 °F    
Average Humidity 59    
Maximum Humidity 65    
Minimum Humidity 54    
Precipitation  
Precipitation 0.00 in 0.11 in 1.54 in (1972)
Month to date precipitation 1.51  
Year to date precipitation 34.68  
Snow  
Snow - 0.10 in 10.80 in (1995)
Month to date snowfall 1.7  
Since 1 July snowfall 2.7  
Since 1 September snowfall 2.7  
Snow Depth -    
Sea Level Pressure  
Sea Level Pressure 30.27 in    
Wind  
Wind Speed 8 mph ()    
Max Wind Speed 13 mph    
Max Gust Speed 22 mph    
Visibility 10.0 miles    
Events      
T = Trace of Precipitation, MM = Missing Value Source: Averaged Metar Reports

Daily Weather History Graph

Daily Weather History Graph

Search for Another Location

Airport or City:

Astronomy

Nov. 14, 2019 Rise Set
Actual Time 6:52 AM EST 4:43 PM EST
Civil Twilight 6:22 AM EST 5:13 PM EST
Nautical Twilight 5:48 AM EST 5:47 PM EST
Astronomical Twilight 5:15 AM EST 6:20 PM EST
Moon 6:25 PM EST (11/14) 8:47 AM EST (11/14)
Length of Visible Light 10h 50m
Length of Day
9h 50m
Waning Gibbous, 95% of the Moon is Illuminated
Nov 14
Waning Gibbous
Nov 19
Last Quarter
Nov 26
New
Dec 4
First Quarter
Dec 12
Full

Hourly Weather History & Observations

Time (EST) Temp. Windchill Dew Point Humidity Pressure Visibility Wind Dir Wind Speed Gust Speed Precip Events Conditions
12:53 AM 18.0 °F 7.7 °F 8.1 °F 65% 30.34 in 10.0 mi SSE 8.1 mph - N/A   Partly Cloudy
1:53 AM 19.0 °F 8.2 °F 7.0 °F 59% 30.33 in 10.0 mi SSE 9.2 mph - N/A   Mostly Cloudy
2:53 AM 18.0 °F 6.9 °F 8.1 °F 65% 30.32 in 10.0 mi SSE 9.2 mph - N/A   Overcast
3:53 AM 19.0 °F 9.0 °F 9.0 °F 65% 30.30 in 10.0 mi SSE 8.1 mph - N/A   Clear
4:53 AM 21.0 °F 9.9 °F 10.0 °F 63% 30.30 in 10.0 mi South 10.4 mph - N/A   Overcast
5:53 AM 21.9 °F 11.7 °F 10.0 °F 60% 30.29 in 10.0 mi South 9.2 mph 18.4 mph N/A   Overcast
6:53 AM 21.9 °F 11.0 °F 10.9 °F 63% 30.30 in 10.0 mi South 10.4 mph 18.4 mph N/A   Overcast
7:53 AM 23.0 °F 13.1 °F 10.9 °F 60% 30.31 in 10.0 mi South 9.2 mph - N/A   Overcast
8:53 AM 24.1 °F 12.5 °F 12.0 °F 60% 30.30 in 10.0 mi South 12.7 mph - N/A   Overcast
9:53 AM 25.0 °F 14.2 °F 12.9 °F 60% 30.31 in 10.0 mi SSW 11.5 mph 21.9 mph N/A   Overcast
10:53 AM 26.1 °F 15.6 °F 12.9 °F 58% 30.30 in 10.0 mi South 11.5 mph - N/A   Overcast
11:53 AM 27.0 °F 16.1 °F 12.9 °F 56% 30.27 in 10.0 mi South 12.7 mph - N/A   Overcast
12:53 PM 28.9 °F 19.2 °F 14.0 °F 54% 30.27 in 10.0 mi SSW 11.5 mph - N/A   Overcast
1:53 PM 28.9 °F 19.2 °F 14.0 °F 54% 30.25 in 10.0 mi South 11.5 mph - N/A   Mostly Cloudy
2:53 PM 30.0 °F 20.5 °F 15.1 °F 54% 30.24 in 10.0 mi South 11.5 mph 19.6 mph N/A   Overcast
3:53 PM 30.0 °F 22.4 °F 15.1 °F 54% 30.23 in 10.0 mi South 8.1 mph - N/A   Mostly Cloudy
4:53 PM 30.0 °F 25.2 °F 16.0 °F 56% 30.24 in 10.0 mi Variable 4.6 mph - N/A   Overcast
5:53 PM 30.0 °F 24.1 °F 16.0 °F 56% 30.25 in 10.0 mi South 5.8 mph - N/A   Mostly Cloudy
6:53 PM 30.0 °F 24.1 °F 16.0 °F 56% 30.25 in 10.0 mi SSW 5.8 mph - N/A   Overcast
7:53 PM 30.0 °F 24.1 °F 17.1 °F 59% 30.25 in 10.0 mi SSW 5.8 mph - N/A   Mostly Cloudy
8:53 PM 30.9 °F 22.8 °F 18.0 °F 59% 30.24 in 10.0 mi SW 9.2 mph - N/A   Overcast
9:53 PM 30.9 °F 22.8 °F 18.0 °F 59% 30.25 in 10.0 mi SW 9.2 mph - N/A   Overcast
10:53 PM 30.9 °F 25.2 °F 18.0 °F 59% 30.24 in 10.0 mi SW 5.8 mph - N/A   Overcast
11:53 PM 32.0 °F 24.2 °F 18.0 °F 56% 30.22 in 10.0 mi SW 9.2 mph - N/A   Overcast